Garrison, ND

6:49 AM CST on December 12, 2017 (GMT -0600)
Garrison

Weather History for KN60 - March, 2014

Change the Weather History Date:

Wednesday, March 5, 2014

  Actual Average Record
Temperature  
Mean Temperature 19 °F -  
Max Temperature 28 °F - 61 °F (2016)
Min Temperature 10 °F - -18 °F (2003)
Degree Days  
Heating Degree Days 46    
Month to date heating degree days 320  
Cooling Degree Days 0    
Month to date cooling degree days 0  
Year to date cooling degree days 0  
Moisture  
Dew Point 14 °F    
Average Humidity 83    
Maximum Humidity 92    
Minimum Humidity 74    
Precipitation  
Precipitation 0.02 in - 0.12 in (2002)
Month to date precipitation 0.08  
Year to date precipitation 0.96  
Sea Level Pressure  
Sea Level Pressure 30.10 in    
Wind  
Wind Speed 15 mph (SSE)    
Max Wind Speed 25 mph    
Max Gust Speed 30 mph    
T = Trace of Precipitation, MM = Missing Value Source: NWS Daily Summary

Daily Weather History Graph

Daily Weather History Graph

Search for Another Location

Airport or City:

Trip Planner

Search our weather history database for the weather conditions in past years. The results will help you decide how hot, cold, wet, or windy it might be!

Date:

Astronomy

Mar. 05, 2014 Rise Set
Actual Time 7:18 AM CST 6:36 PM CST
Civil Twilight 6:47 AM CST 7:07 PM CST
Nautical Twilight 6:12 AM CST 7:43 PM CST
Astronomical Twilight 5:36 AM CST 8:19 PM CST
Moon 9:24 AM CST (3/5) No Moon Set
Length of Visible Light 12h 19m
Length of Day
11h 18m
Waxing Crescent, 23% of the Moon is Illuminated
Mar 5
Waxing Crescent
Mar 8
First Quarter
Mar 16
Full
Mar 23
Last Quarter
Mar 30
New

Hourly Weather History & Observations

Time (CST) Temp. Windchill Dew Point Humidity Pressure Visibility Wind Dir Wind Speed Gust Speed Precip Events Conditions
12:52 AM 10.0 °F -5.2 °F 5.0 °F 80% 30.30 in - SSE 12.7 mph - N/A   Unknown
1:52 AM 10.0 °F -3.7 °F 6.1 °F 84% 30.29 in - SSE 10.4 mph - N/A   Unknown
2:52 AM 10.0 °F -2.9 °F 6.1 °F 84% 30.29 in - SSE 9.2 mph - N/A   Unknown
3:52 AM 10.0 °F -2.9 °F 6.1 °F 84% 30.29 in - SE 9.2 mph - N/A   Unknown
4:52 AM 10.0 °F -4.5 °F 6.1 °F 84% 30.27 in - SSE 11.5 mph - N/A   Unknown
5:52 AM 10.9 °F -5.4 °F 7.0 °F 84% 30.25 in - South 15.0 mph - N/A   Unknown
6:52 AM 10.9 °F -4.7 °F 7.0 °F 84% 30.23 in - South 13.8 mph - N/A   Unknown
7:52 AM 10.9 °F -5.4 °F 7.0 °F 84% 30.23 in - South 15.0 mph - N/A   Unknown
8:52 AM 10.9 °F -5.4 °F 8.1 °F 88% 30.21 in - SSE 15.0 mph - N/A   Unknown
9:52 AM 14.0 °F -3.9 °F 9.0 °F 80% 30.18 in - South 20.7 mph - N/A   Unknown
10:52 AM 16.0 °F -0.9 °F 10.9 °F 81% 30.14 in - South 19.6 mph 27.6 mph N/A   Unknown
11:52 AM 18.0 °F 2.2 °F 12.9 °F 81% 30.12 in - South 18.4 mph - N/A   Unknown
12:52 PM 19.9 °F 4.8 °F 15.1 °F 81% 30.09 in - South 18.4 mph - N/A   Unknown
1:52 PM 24.1 °F 9.4 °F 18.0 °F 77% 30.04 in - South 20.7 mph - 0.01 in   Unknown
2:52 PM 25.0 °F 12.2 °F 19.0 °F 78% 30.02 in - South 16.1 mph - N/A   Unknown
3:52 PM 28.0 °F 15.3 °F 21.0 °F 75% 30.00 in - South 18.4 mph - N/A   Unknown
4:52 PM 28.0 °F 17.0 °F 21.0 °F 75% 29.99 in - South 13.8 mph - 0.01 in   Unknown
5:52 PM 26.1 °F 15.0 °F 21.0 °F 81% 29.97 in - South 12.7 mph - N/A   Unknown
6:52 PM 25.0 °F 14.2 °F 19.9 °F 81% 29.97 in - South 11.5 mph - N/A   Unknown
7:52 PM 24.1 °F 12.5 °F 19.0 °F 81% 29.96 in - South 12.7 mph - N/A   Unknown
8:52 PM 25.0 °F 13.1 °F 19.9 °F 81% 29.93 in - SSE 13.8 mph - N/A   Unknown
9:52 PM 25.0 °F 14.2 °F 21.0 °F 85% 29.90 in - SSE 11.5 mph - N/A   Unknown
10:52 PM 26.1 °F 17.6 °F 21.0 °F 81% 29.89 in - SSE 8.1 mph - N/A   Unknown
11:52 PM 26.1 °F 18.4 °F 21.9 °F 84% 29.86 in - SSE 6.9 mph - N/A   Unknown